THOR AGENA B R/B, 426

Orbit data source: Space-Track

THOR AGENA B R/B, 426 is space debris in LEO originally from a launch on Sat, 29 Sep 1962 UTC via a THOR AGENA B launch vehicle from the Air Force Western Test Range (AFWTR). Debris objects in space refer to the collection of defunct objects orbiting the Earth. Examples of debris include non-operational satellites, rocket bodies, and fragments generated from explosions, collisions, or faulty payload assembly.

Loading next visibility...
Identifier
426, 1962-049B
Orbit
LEO
Country
Flag of USUS
Related business
Manufacturer
GSFC
Mission
Spacecraft
Bus & Motor
TAVE, Unknown motor
Mass
900 kg wet, 91 kg dry
Launch date (UTC)
1962-09-29 (63 years ago)
Launch vehicle
THOR AGENA B
Launch site
Air Force Western Test Range (AFWTR)
Object type
Payload
Rocket body
Debris
Shape & HBR
Unknown
Radar Cross Section
Large (>1 m²)

Expand to show TLE details & history
Last TLE update: 12 hours ago

TLE from 12 hours ago
0 THOR AGENA B R/B
1 00426U 62049B   26037.53411732  .00000051  00000-0  48710-4 0  9997
2 00426  80.4692  37.1450 0017389 202.6307 275.9525 13.68746053162255
Epoch: 2026-02-06T12:49Z
TLE epoch observation values (Epoch: 2026-02-06T12:49:07.736Z)
Latitude
60.27895°
Longitude
-128.82023°
Altitude
1,012.955 km
Speed
7.352 km/s
True Right ascension
13h 20m 31s
True Declination
60° 08' 09"
Sunlit
Object was in daylight at epoch
Visualization orbit readout
Latitude
Unknown
Longitude
Unknown
Altitude
Unknown
Speed
Unknown
Apparent Right ascension
Unknown
Apparent Declination
Unknown
Sunlit
N/A
Visualization observer readout
Local Sidereal Time
03:07:46
Azimuth
Unknown
Elevation
Unknown
Doppler factor
Unknown
Orbital elements
Apogee altitude
1,014.176 km
Perigee altitude
988.512 km
Semi-major axis
7,379.481 km
Eccentricity
0.00174
Inclination
80.4692°
RAAN
37.145°
Arg. of periapsis
202.6307°
True anomaly
275.75427°
Mean anomaly
275.9525°
Eccentric anomaly
275.85339°
Mean motion
3.42377 °/min
Orbital period
105.15 mins
BSTAR
0.00004871
Loading maneuver chart data...
Computing Atmospheric mass density...
Loading historical data...
Loading historical data...
Loading historical data...
Loading historical data...
Loading historical data...
Loading historical data...
Loading historical data...
Other satellites on launch #49 in the year 1962 (1962-09-29 UTC)

Documentation

Showing up to 5 results
|